FW7746 Weather Reports


Display with metric or nautical units.
time (UTC)temp
F
wind
direction
speed
MPH
gust
MPH
rain 1hr
in
rain 24hr
in
rain mn
in
humidity
%
barometer
mb
20260508222604 76 285 1.0 3.0 0.00 0.00 0.00 22 1015.3
20260508221104 75 296 2.0 5.0 0.00 0.00 0.00 22 1015.5
20260508220604 76 242 1.0 8.0 0.00 0.00 0.00 21 1015.5
20260508220105 76 248 1.0 3.0 0.00 0.00 0.00 21 1015.4
20260508215605 76 188 1.0 6.0 0.00 0.00 0.00 22 1015.5
20260508215104 75 294 0.0 5.0 0.00 0.00 0.00 21 1015.4
20260508214604 75 320 1.0 6.0 0.00 0.00 0.00 21 1015.5
20260508214104 76 313 0.0 3.0 0.00 0.00 0.00 21 1015.6
20260508213605 75 230 1.0 5.0 0.00 0.00 0.00 22 1015.5
20260508212605 75 274 0.0 2.0 0.00 0.00 0.00 22 1015.6
20260508212104 75 288 1.0 10.0 0.00 0.00 0.00 22 1015.6
20260508211604 74 216 1.0 3.0 0.00 0.00 0.00 22 1015.6
20260508211104 74 331 1.0 3.0 0.00 0.00 0.00 20 1015.7
20260508210604 74 278 0.0 3.0 0.00 0.00 0.00 21 1015.5
20260508210105 74 333 2.0 9.0 0.00 0.00 0.00 19 1015.5
20260508205604 73 247 0.0 3.0 0.00 0.00 0.00 20 1015.5
20260508205104 73 333 1.0 5.0 0.00 0.00 0.00 20 1015.5
20260508204604 74 310 1.0 5.0 0.00 0.00 0.00 21 1015.4
20260508204105 73 332 1.0 6.0 0.00 0.00 0.00 20 1015.3
20260508203604 74 297 0.0 10.0 0.00 0.00 0.00 20 1015.2
20260508203104 73 327 2.0 8.0 0.00 0.00 0.00 21 1015.3
20260508202604 74 49 0.0 2.0 0.00 0.00 0.00 19 1015.3
20260508202104 73 137 0.0 3.0 0.00 0.00 0.00 19 1015.3
20260508201604 73 319 1.0 5.0 0.00 0.00 0.00 19 1015.5
20260508200604 72 331 1.0 10.0 0.00 0.00 0.00 21 1015.5
20260508200104 73 334 2.0 12.0 0.00 0.00 0.00 20 1015.4
20260508195604 73 289 1.0 8.0 0.00 0.00 0.00 21 1015.3
20260508195104 73 175 1.0 8.0 0.00 0.00 0.00 20 1015.1
20260508194605 73 281 0.0 5.0 0.00 0.00 0.00 19 1015.3
20260508194104 72 208 0.0 12.0 0.00 0.00 0.00 20 1015.4
20260508193604 72 243 1.0 8.0 0.00 0.00 0.00 19 1015.4
20260508193104 71 236 1.0 3.0 0.00 0.00 0.00 18 1015.4
20260508192604 71 256 0.0 5.0 0.00 0.00 0.00 19 1015.4
20260508192104 71 102 1.0 3.0 0.00 0.00 0.00 22 1015.3
20260508191605 71 318 0.0 3.0 0.00 0.00 0.00 23 1015.4
20260508191104 71 157 1.0 3.0 0.00 0.00 0.00 24 1015.4
20260508190604 70 166 0.0 2.0 0.00 0.00 0.00 24 1015.5
20260508190104 70 231 1.0 3.0 0.00 0.00 0.00 22 1015.5
20260508185604 69 142 1.0 3.0 0.00 0.00 0.00 21 1015.5
20260508185104 68 147 0.0 3.0 0.00 0.00 0.00 21 1015.6
20260508184604 68 177 0.0 1.0 0.00 0.00 0.00 21 1015.7
20260508184104 67 151 0.0 3.0 0.00 0.00 0.00 22 1015.7
20260508183605 66 170 0.0 6.0 0.00 0.00 0.00 24 1015.6
20260508183104 65 311 0.0 6.0 0.00 0.00 0.00 25 1015.6
20260508182604 64 308 0.0 3.0 0.00 0.00 0.00 25 1015.7
20260508182104 64 239 1.0 5.0 0.00 0.00 0.00 24 1015.6
20260508181604 64 214 0.0 8.0 0.00 0.00 0.00 25 1015.5
20260508181104 64 262 0.0 3.0 0.00 0.00 0.00 25 1015.4
20260508175604 64 191 0.0 3.0 0.00 0.00 0.00 28 1015.3
20260508174104 63 341 0.0 3.0 0.00 0.00 0.00 33 1015.4
20260508173604 63 252 0.0 3.0 0.00 0.00 0.00 32 1015.4
20260508173104 63 245 1.0 3.0 0.00 0.00 0.00 32 1015.3
20260508172104 64 269 1.0 6.0 0.00 0.00 0.00 29 1015.4
20260508171604 63 250 1.0 5.0 0.00 0.00 0.00 29 1015.4
20260508171104 63 270 0.0 3.0 0.00 0.00 0.00 29 1015.5
20260508170604 63 262 1.0 3.0 0.00 0.00 0.00 31 1015.3
20260508165605 62 144 0.0 5.0 0.00 0.00 0.00 36 1015.3
20260508165104 61 209 0.0 1.0 0.00 0.00 0.00 39 1015.3
20260508164104 61 180 1.0 3.0 0.00 0.00 0.00 38 1015.3
20260508163604 61 219 0.0 3.0 0.00 0.00 0.00 37 1015.3
20260508163104 61 163 0.0 2.0 0.00 0.00 0.00 38 1015.4
20260508162604 61 221 1.0 7.0 0.00 0.00 0.00 37 1015.4
20260508161604 61 200 0.0 7.0 0.00 0.00 0.00 37 1015.2
20260508161104 61 209 1.0 6.0 0.00 0.00 0.00 35 1015.2
20260508160604 60 171 0.0 3.0 0.00 0.00 0.00 38 1015.0
20260508160105 59 199 1.0 6.0 0.00 0.00 0.00 40 1015.0
20260508155604 58 203 1.0 5.0 0.00 0.00 0.00 40 1014.9
20260508154603 57 174 1.0 3.0 0.00 0.00 0.00 44 1014.8
20260508154103 56 149 1.0 5.0 0.00 0.00 0.00 45 1014.8
20260508153603 56 159 0.0 3.0 0.00 0.00 0.00 45 1014.8
20260508153103 56 158 1.0 3.0 0.00 0.00 0.00 47 1014.8
20260508152603 55 215 0.0 5.0 0.00 0.00 0.00 48 1014.8
20260508152102 54 211 1.0 8.0 0.00 0.00 0.00 49 1014.8
20260508151603 53 194 0.0 2.0 0.00 0.00 0.00 50 1014.8
20260508151103 53 192 0.0 3.0 0.00 0.00 0.00 50 1014.8
20260508150603 52 227 0.0 2.0 0.00 0.00 0.00 50 1014.7
20260508145603 52 178 0.0 2.0 0.00 0.00 0.00 51 1014.6
20260508145103 52 226 0.0 3.0 0.00 0.00 0.00 51 1014.5
20260508144603 52 215 0.0 3.0 0.00 0.00 0.00 51 1014.4
20260508144103 52 222 1.0 3.0 0.00 0.00 0.00 51 1014.4
20260508143604 52 218 0.0 1.0 0.00 0.00 0.00 52 1014.3
20260508143103 51 252 0.0 3.0 0.00 0.00 0.00 53 1014.3
20260508142603 51 183 0.0 1.0 0.00 0.00 0.00 54 1014.3
20260508142103 51 172 0.0 3.0 0.00 0.00 0.00 55 1014.3
20260508141603 50 158 0.0 3.0 0.00 0.00 0.00 55 1014.3
20260508141103 50 137 0.0 6.0 0.00 0.00 0.00 55 1014.3
20260508140603 50 238 0.0 2.0 0.00 0.00 0.00 55 1014.3
20260508140103 50 193 0.0 1.0 0.00 0.00 0.00 55 1014.4
20260508135603 50 179 0.0 0.0 0.00 0.00 0.00 55 1014.3
20260508135103 50 180 0.0 1.0 0.00 0.00 0.00 54 1014.4
20260508134603 50 220 0.0 3.0 0.00 0.00 0.00 54 1014.2
20260508134103 50 211 0.0 2.0 0.00 0.00 0.00 54 1014.4
20260508133603 49 217 0.0 1.0 0.00 0.00 0.00 55 1014.4
20260508133103 49 221 0.0 2.0 0.00 0.00 0.00 55 1014.2
20260508132603 49 234 0.0 1.0 0.00 0.00 0.00 56 1014.2
20260508132103 49 255 0.0 3.0 0.00 0.00 0.00 56 1014.1
20260508131603 49 247 0.0 3.0 0.00 0.00 0.00 57 1014.2
20260508131103 49 224 1.0 8.0 0.00 0.00 0.00 57 1014.1
20260508130603 49 210 0.0 2.0 0.00 0.00 0.00 57 1014.0
20260508125604 49 139 0.0 2.0 0.00 0.00 0.00 58 1013.9
20260508125103 49 207 0.0 2.0 0.00 0.00 0.00 57 1013.8
20260508124603 49 211 0.0 1.0 0.00 0.00 0.00 57 1013.6
20260508124103 49 203 0.0 3.0 0.00 0.00 0.00 56 1013.6
20260508123603 49 183 0.0 3.0 0.00 0.00 0.00 56 1013.6
20260508122603 50 188 0.0 1.0 0.00 0.00 0.00 56 1013.6
20260508122103 50 206 0.0 3.0 0.00 0.00 0.00 55 1013.7
20260508121604 50 206 0.0 3.0 0.00 0.00 0.00 55 1013.7
20260508120603 50 180 0.0 2.0 0.00 0.00 0.00 54 1013.7
20260508120104 50 212 0.0 3.0 0.00 0.00 0.00 54 1013.8
20260508115603 51 199 0.0 0.0 0.00 0.00 0.00 54 1013.8
20260508115104 51 215 0.0 2.0 0.00 0.00 0.00 53 1013.8
20260508114103 51 211 0.0 2.0 0.00 0.00 0.00 52 1013.6
20260508113103 51 198 0.0 1.0 0.00 0.00 0.00 50 1013.5
20260508112604 51 86 0.0 2.0 0.00 0.00 0.00 50 1013.6
20260508112104 51 243 0.0 3.0 0.00 0.00 0.00 49 1013.6
20260508111603 51 126 0.0 3.0 0.00 0.00 0.00 50 1013.6
20260508111104 51 219 0.0 6.0 0.00 0.00 0.00 50 1013.6
20260508110603 51 201 0.0 6.0 0.00 0.00 0.00 49 1013.6
20260508110104 52 257 1.0 3.0 0.00 0.00 0.00 49 1013.6
20260508105103 52 189 0.0 1.0 0.00 0.00 0.00 48 1013.4
20260508104103 52 245 0.0 1.0 0.00 0.00 0.00 48 1013.4
20260508103604 52 35 0.0 3.0 0.00 0.00 0.00 47 1013.2
20260508103103 52 104 0.0 2.0 0.00 0.00 0.00 47 1013.3
20260508102603 53 185 0.0 0.0 0.00 0.00 0.00 46 1013.3
20260508101104 53 219 0.0 3.0 0.00 0.00 0.00 44 1013.3
20260508100603 54 174 0.0 2.0 0.00 0.00 0.00 43 1013.4
20260508100103 54 174 0.0 3.0 0.00 0.00 0.00 43 1013.4
20260508095105 53 202 0.0 12.0 0.00 0.00 0.00 43 1013.3
20260508094603 53 139 1.0 3.0 0.00 0.00 0.00 43 1013.3
20260508094103 53 154 0.0 3.0 0.00 0.00 0.00 42 1013.2
20260508093603 53 234 1.0 3.0 0.00 0.00 0.00 42 1013.3
20260508092604 53 226 0.0 0.0 0.00 0.00 0.00 41 1013.2
20260508091604 53 226 0.0 0.0 0.00 0.00 0.00 40 1013.3
20260508091103 54 225 0.0 2.0 0.00 0.00 0.00 40 1013.4
20260508090603 54 202 0.0 1.0 0.00 0.00 0.00 39 1013.4
20260508090103 55 160 0.0 0.0 0.00 0.00 0.00 38 1013.4
20260508085603 55 160 0.0 1.0 0.00 0.00 0.00 38 1013.4
20260508085103 55 128 0.0 2.0 0.00 0.00 0.00 37 1013.4
20260508084603 55 190 0.0 1.0 0.00 0.00 0.00 37 1013.4
20260508084103 55 223 0.0 0.0 0.00 0.00 0.00 36 1013.3
20260508083603 55 209 0.0 2.0 0.00 0.00 0.00 36 1013.3
20260508083103 56 214 0.0 5.0 0.00 0.00 0.00 35 1013.2
20260508082103 56 191 0.0 1.0 0.00 0.00 0.00 35 1013.3
20260508081603 56 148 0.0 2.0 0.00 0.00 0.00 35 1013.4
20260508081103 56 192 0.0 0.0 0.00 0.00 0.00 35 1013.3
20260508080603 56 191 0.0 1.0 0.00 0.00 0.00 36 1013.4
20260508080104 56 222 1.0 3.0 0.00 0.00 0.00 35 1013.4
20260508075603 56 210 0.0 2.0 0.00 0.00 0.00 35 1013.3
20260508075104 56 180 0.0 2.0 0.00 0.00 0.00 35 1013.3
20260508074603 56 163 0.0 0.0 0.00 0.00 0.00 35 1013.4
20260508074103 56 163 0.0 0.0 0.00 0.00 0.00 35 1013.4
20260508073604 56 153 0.0 0.0 0.00 0.00 0.00 36 1013.4
20260508073103 56 155 0.0 2.0 0.00 0.00 0.00 35 1013.4
20260508072603 56 178 0.0 0.0 0.00 0.00 0.00 35 1013.2
20260508072103 56 186 0.0 0.0 0.00 0.00 0.00 35 1013.3
20260508071603 56 196 0.0 2.0 0.00 0.00 0.00 35 1013.4
20260508071103 57 191 0.0 1.0 0.00 0.00 0.00 34 1013.3
20260508070603 57 170 0.0 1.0 0.00 0.00 0.00 34 1013.3
20260508070104 57 202 0.0 1.0 0.00 0.00 0.00 33 1013.2
20260508065604 57 215 1.0 3.0 0.00 0.00 0.00 33 1013.2
20260508065103 57 237 0.0 1.0 0.00 0.00 0.00 33 1013.2
20260508064604 57 190 0.0 0.0 0.00 0.00 0.00 32 1013.2
20260508064103 57 189 0.0 0.0 0.00 0.00 0.00 32 1013.3
20260508063603 57 190 0.0 2.0 0.00 0.00 0.00 31 1013.3
20260508063103 57 207 0.0 1.0 0.00 0.00 0.00 30 1013.3
20260508062603 57 214 0.0 2.0 0.00 0.00 0.00 29 1013.4
20260508062103 58 225 0.0 3.0 0.00 0.00 0.00 29 1013.4
20260508060603 58 227 0.0 3.0 0.00 0.00 0.00 29 1013.3
20260508060103 58 154 0.0 2.0 0.00 0.00 0.00 29 1013.3
20260508055104 58 161 0.0 0.0 0.00 0.00 0.00 28 1013.2
20260508054603 58 162 0.0 1.0 0.00 0.00 0.00 28 1013.2
20260508054103 59 179 0.0 0.0 0.00 0.00 0.00 28 1013.3
20260508053604 59 173 0.0 0.0 0.00 0.00 0.00 28 1013.3
20260508053103 59 159 0.0 0.0 0.00 0.00 0.00 28 1013.2
20260508052603 59 156 0.0 3.0 0.00 0.00 0.00 28 1013.2
20260508052103 60 173 0.0 2.0 0.00 0.00 0.00 28 1013.1
20260508051603 60 178 0.0 1.0 0.00 0.00 0.00 28 1013.1
20260508051104 60 197 0.0 1.0 0.00 0.00 0.00 28 1013.0
20260508050104 60 204 0.0 0.0 0.00 0.00 0.00 28 1013.1
20260508045604 61 206 0.0 0.0 0.00 0.00 0.00 29 1013.1
20260508045103 61 206 0.0 0.0 0.00 0.00 0.00 28 1013.1
20260508044603 61 206 0.0 0.0 0.00 0.00 0.00 28 1013.1
20260508044104 61 206 0.0 0.0 0.00 0.00 0.00 28 1013.1
20260508043603 62 206 0.0 0.0 0.00 0.00 0.00 27 1013.2
20260508043104 62 207 0.0 0.0 0.00 0.00 0.00 27 1013.1
20260508042605 62 207 0.0 0.0 0.00 0.00 0.00 27 1013.0
20260508042103 62 207 0.0 0.0 0.00 0.00 0.00 26 1012.9
20260508041603 62 209 0.0 0.0 0.00 0.00 0.00 26 1012.8
20260508040603 63 212 0.0 0.0 0.00 0.00 0.00 26 1012.7
20260508040104 63 212 0.0 0.0 0.00 0.00 0.00 26 1012.7
20260508035603 64 246 0.0 0.0 0.00 0.00 0.00 25 1012.6
20260508035103 64 246 0.0 0.0 0.00 0.00 0.00 25 1012.5
20260508034603 64 246 0.0 0.0 0.00 0.00 0.00 25 1012.5
20260508034103 65 246 0.0 2.0 0.00 0.00 0.00 25 1012.4
20260508033603 65 218 0.0 0.0 0.00 0.00 0.00 25 1012.5
20260508033103 65 218 0.0 0.0 0.00 0.00 0.00 25 1012.4
20260508032603 65 218 0.0 0.0 0.00 0.00 0.00 24 1012.4
20260508032104 66 218 0.0 0.0 0.00 0.00 0.00 23 1012.3
20260508031604 66 219 0.0 0.0 0.00 0.00 0.00 23 1012.2
20260508031103 66 220 0.0 2.0 0.00 0.00 0.00 22 1012.2
20260508030604 67 226 0.0 3.0 0.00 0.00 0.00 22 1012.1
20260508030104 67 167 0.0 3.0 0.00 0.00 0.00 22 1012.1
20260508025604 68 245 1.0 9.0 0.00 0.00 0.00 21 1012.0
20260508025103 68 252 0.0 3.0 0.00 0.00 0.00 22 1012.1
20260508024603 68 261 0.0 1.0 0.00 0.00 0.00 21 1011.9
20260508024104 69 222 0.0 3.0 0.00 0.00 0.00 22 1011.9
20260508023603 69 251 0.0 1.0 0.00 0.00 0.00 22 1012.0
20260508022603 70 220 0.0 0.0 0.00 0.00 0.00 24 1012.0
20260508022104 70 263 0.0 0.0 0.00 0.00 0.00 24 1011.8
20260508021603 70 245 0.0 0.0 0.00 0.00 0.00 24 1011.8
20260508021104 71 245 0.0 1.0 0.00 0.00 0.00 23 1011.8
20260508020603 71 237 0.0 2.0 0.00 0.00 0.00 23 1011.8
20260508015603 72 226 0.0 3.0 0.00 0.00 0.00 22 1011.9
20260508015104 72 224 0.0 3.0 0.00 0.00 0.00 22 1011.9
20260508014603 73 337 0.0 2.0 0.00 0.00 0.00 22 1012.0
20260508014103 73 137 0.0 3.0 0.00 0.00 0.00 21 1011.9
20260508013603 74 216 1.0 3.0 0.00 0.00 0.00 22 1011.8
20260508013103 74 260 0.0 3.0 0.00 0.00 0.00 23 1011.8
20260508012603 74 206 1.0 6.0 0.00 0.00 0.00 22 1011.8
20260508012103 74 226 1.0 7.0 0.00 0.00 0.00 23 1011.8
20260508011604 74 239 1.0 5.0 0.00 0.00 0.00 23 1011.7
20260508011103 75 300 0.0 3.0 0.00 0.00 0.00 24 1011.8
20260508010603 75 249 1.0 7.0 0.00 0.00 0.00 24 1011.7
20260508005603 76 229 2.0 7.0 0.00 0.00 0.00 24 1011.7
20260508004603 76 230 2.0 8.0 0.00 0.00 0.00 24 1011.8
20260508003604 77 252 1.0 8.0 0.00 0.00 0.00 23 1011.7
20260508003103 77 183 0.0 10.0 0.00 0.00 0.00 23 1011.7
20260508001603 76 257 1.0 8.0 0.00 0.00 0.00 24 1011.6
20260508001104 77 190 2.0 13.0 0.00 0.00 0.00 24 1011.6
20260508000604 78 270 2.0 10.0 0.00 0.00 0.00 24 1011.4
20260507235603 79 200 1.0 16.0 0.00 0.00 0.00 23 1011.3
20260507235103 79 226 0.0 8.0 0.00 0.00 0.00 22 1011.2
20260507234104 79 238 1.0 3.0 0.00 0.00 0.00 21 1011.3
20260507233603 80 235 1.0 8.0 0.00 0.00 0.00 20 1011.3
20260507233103 80 234 1.0 8.0 0.00 0.00 0.00 19 1011.3
20260507232603 80 145 0.0 3.0 0.00 0.00 0.00 19 1011.2
20260507232103 80 209 1.0 3.0 0.00 0.00 0.00 19 1011.3
20260507231603 80 243 1.0 3.0 0.00 0.00 0.00 19 1011.3
20260507231103 80 255 1.0 3.0 0.00 0.00 0.00 19 1011.2
20260507230603 79 338 0.0 0.0 0.00 0.00 0.00 21 1011.2
20260507230104 78 329 0.0 2.0 0.00 0.00 0.00 21 1011.4
20260507225604 78 61 1.0 3.0 0.00 0.00 0.00 20 1011.4
20260507225103 78 331 1.0 2.0 0.00 0.00 0.00 21 1011.4
20260507224604 77 336 0.0 5.0 0.00 0.00 0.00 21 1011.6
20260507224103 77 313 1.0 5.0 0.00 0.00 0.00 21 1011.5
20260507223603 77 307 1.0 9.0 0.00 0.00 0.00 21 1011.6
20260507223103 77 331 1.0 3.0 0.00 0.00 0.00 21 1011.5